owner,sensor,date,latitude,longitude,vertical_datum,sea_water_temperature,qcFlag 
ENP,ioos.station.NOAA.NDBC:CNBF1:1,2019-11-01T00:00:00Z,25.7020,-81.1860,1.0,31.29,11111222 
ENP,ioos.station.NOAA.NDBC:CNBF1:1,2019-11-01T01:00:00Z,25.7020,-81.1860,1.0,31.18,11111222 
ENP,ioos.station.NOAA.NDBC:CNBF1:1,2019-11-01T02:00:00Z,25.7020,-81.1860,1.0,31.06,11111222 
ENP,ioos.station.NOAA.NDBC:CNBF1:1,2019-11-01T04:00:00Z,25.7020,-81.1860,1.0,30.78,11111222 
ENP,ioos.station.NOAA.NDBC:CNBF1:1,2019-11-01T05:00:00Z,25.7020,-81.1860,1.0,30.68,11111222 
ENP,ioos.station.NOAA.NDBC:CNBF1:1,2019-11-01T06:00:00Z,25.7020,-81.1860,1.0,30.58,11111222 
ENP,ioos.station.NOAA.NDBC:CNBF1:1,2019-11-01T07:00:00Z,25.7020,-81.1860,1.0,30.45,11111222 
ENP,ioos.station.NOAA.NDBC:CNBF1:1,2019-11-01T08:00:00Z,25.7020,-81.1860,1.0,30.4,11111222 
ENP,ioos.station.NOAA.NDBC:CNBF1:1,2019-11-01T09:00:00Z,25.7020,-81.1860,1.0,30.26,11111222 
ENP,ioos.station.NOAA.NDBC:CNBF1:1,2019-11-01T10:00:00Z,25.7020,-81.1860,1.0,30.23,11111222 
ENP,ioos.station.NOAA.NDBC:CNBF1:1,2019-11-01T11:00:00Z,25.7020,-81.1860,1.0,30.05,11111222 
ENP,ioos.station.NOAA.NDBC:CNBF1:1,2019-11-01T12:00:00Z,25.7020,-81.1860,1.0,30.01,11111222 
ENP,ioos.station.NOAA.NDBC:CNBF1:1,2019-11-01T13:00:00Z,25.7020,-81.1860,1.0,29.88,11111222 
ENP,ioos.station.NOAA.NDBC:CNBF1:1,2019-11-01T15:00:00Z,25.7020,-81.1860,1.0,29.64,11111222 
ENP,ioos.station.NOAA.NDBC:CNBF1:1,2019-11-01T17:00:00Z,25.7020,-81.1860,1.0,29.61,11111222 
ENP,ioos.station.NOAA.NDBC:CNBF1:1,2019-11-01T18:00:00Z,25.7020,-81.1860,1.0,29.66,11111222 
ENP,ioos.station.NOAA.NDBC:CNBF1:1,2019-11-01T19:00:00Z,25.7020,-81.1860,1.0,29.7,11111222 
ENP,ioos.station.NOAA.NDBC:CNBF1:1,2019-11-01T20:00:00Z,25.7020,-81.1860,1.0,29.73,11111222 
ENP,ioos.station.NOAA.NDBC:CNBF1:1,2019-11-01T21:00:00Z,25.7020,-81.1860,1.0,29.79,11111222 
ENP,ioos.station.NOAA.NDBC:CNBF1:1,2019-11-01T23:00:00Z,25.7020,-81.1860,1.0,29.86,11111222 
ENP,ioos.station.NOAA.NDBC:CNBF1:1,2019-11-02T00:00:00Z,25.7020,-81.1860,1.0,29.84,11111222 
ENP,ioos.station.NOAA.NDBC:CNBF1:1,2019-11-02T02:00:00Z,25.7020,-81.1860,1.0,29.64,11111222 
ENP,ioos.station.NOAA.NDBC:CNBF1:1,2019-11-02T04:00:00Z,25.7020,-81.1860,1.0,29.59,11111222 
ENP,ioos.station.NOAA.NDBC:CNBF1:1,2019-11-02T05:00:00Z,25.7020,-81.1860,1.0,29.51,11111222 
ENP,ioos.station.NOAA.NDBC:CNBF1:1,2019-11-02T06:00:00Z,25.7020,-81.1860,1.0,29.55,11111222 
ENP,ioos.station.NOAA.NDBC:CNBF1:1,2019-11-02T07:00:00Z,25.7020,-81.1860,1.0,29.51,11111222 
ENP,ioos.station.NOAA.NDBC:CNBF1:1,2019-11-02T08:00:00Z,25.7020,-81.1860,1.0,29.47,11111222 
ENP,ioos.station.NOAA.NDBC:CNBF1:1,2019-11-02T09:00:00Z,25.7020,-81.1860,1.0,29.49,11111222 
ENP,ioos.station.NOAA.NDBC:CNBF1:1,2019-11-02T10:00:00Z,25.7020,-81.1860,1.0,29.44,11111222 
ENP,ioos.station.NOAA.NDBC:CNBF1:1,2019-11-02T11:00:00Z,25.7020,-81.1860,1.0,29.41,11111222 
ENP,ioos.station.NOAA.NDBC:CNBF1:1,2019-11-02T13:00:00Z,25.7020,-81.1860,1.0,29.4,11111222 
ENP,ioos.station.NOAA.NDBC:CNBF1:1,2019-11-02T14:00:00Z,25.7020,-81.1860,1.0,29.36,11111222 
ENP,ioos.station.NOAA.NDBC:CNBF1:1,2019-11-02T15:00:00Z,25.7020,-81.1860,1.0,29.35,11111222 
ENP,ioos.station.NOAA.NDBC:CNBF1:1,2019-11-02T16:00:00Z,25.7020,-81.1860,1.0,29.35,11111222 
ENP,ioos.station.NOAA.NDBC:CNBF1:1,2019-11-02T17:00:00Z,25.7020,-81.1860,1.0,29.02,11111222 
ENP,ioos.station.NOAA.NDBC:CNBF1:1,2019-11-02T18:00:00Z,25.7020,-81.1860,1.0,28.95,11111222 
ENP,ioos.station.NOAA.NDBC:CNBF1:1,2019-11-02T19:00:00Z,25.7020,-81.1860,1.0,28.97,11111222 
ENP,ioos.station.NOAA.NDBC:CNBF1:1,2019-11-02T20:00:00Z,25.7020,-81.1860,1.0,29.01,11111222 
ENP,ioos.station.NOAA.NDBC:CNBF1:1,2019-11-02T21:00:00Z,25.7020,-81.1860,1.0,29.2,11111222 
ENP,ioos.station.NOAA.NDBC:CNBF1:1,2019-11-02T22:00:00Z,25.7020,-81.1860,1.0,29.68,11111222 
ENP,ioos.station.NOAA.NDBC:CNBF1:1,2019-11-02T23:00:00Z,25.7020,-81.1860,1.0,30.04,11111222 
ENP,ioos.station.NOAA.NDBC:CNBF1:1,2019-11-03T00:00:00Z,25.7020,-81.1860,1.0,30.07,11111222 
ENP,ioos.station.NOAA.NDBC:CNBF1:1,2019-11-03T01:00:00Z,25.7020,-81.1860,1.0,29.52,11111222 
ENP,ioos.station.NOAA.NDBC:CNBF1:1,2019-11-03T03:00:00Z,25.7020,-81.1860,1.0,29.75,11111222 
ENP,ioos.station.NOAA.NDBC:CNBF1:1,2019-11-03T05:00:00Z,25.7020,-81.1860,1.0,29.61,11111222 
ENP,ioos.station.NOAA.NDBC:CNBF1:1,2019-11-03T06:00:00Z,25.7020,-81.1860,1.0,29.43,11111222 
ENP,ioos.station.NOAA.NDBC:CNBF1:1,2019-11-03T07:00:00Z,25.7020,-81.1860,1.0,29.02,11111222 
ENP,ioos.station.NOAA.NDBC:CNBF1:1,2019-11-03T08:00:00Z,25.7020,-81.1860,1.0,28.9,11111222 
ENP,ioos.station.NOAA.NDBC:CNBF1:1,2019-11-03T09:00:00Z,25.7020,-81.1860,1.0,28.91,11111222 
ENP,ioos.station.NOAA.NDBC:CNBF1:1,2019-11-03T10:00:00Z,25.7020,-81.1860,1.0,29.28,11111222 
ENP,ioos.station.NOAA.NDBC:CNBF1:1,2019-11-03T11:00:00Z,25.7020,-81.1860,1.0,29.34,11111222 
ENP,ioos.station.NOAA.NDBC:CNBF1:1,2019-11-03T12:00:00Z,25.7020,-81.1860,1.0,29.34,11111222 
ENP,ioos.station.NOAA.NDBC:CNBF1:1,2019-11-03T13:00:00Z,25.7020,-81.1860,1.0,29.34,11111222 
ENP,ioos.station.NOAA.NDBC:CNBF1:1,2019-11-03T14:00:00Z,25.7020,-81.1860,1.0,29.33,11111222 
ENP,ioos.station.NOAA.NDBC:CNBF1:1,2019-11-03T15:00:00Z,25.7020,-81.1860,1.0,29.27,11111222 
ENP,ioos.station.NOAA.NDBC:CNBF1:1,2019-11-03T16:00:00Z,25.7020,-81.1860,1.0,29.46,11111222 
ENP,ioos.station.NOAA.NDBC:CNBF1:1,2019-11-03T17:00:00Z,25.7020,-81.1860,1.0,29.25,11111222 
ENP,ioos.station.NOAA.NDBC:CNBF1:1,2019-11-03T18:00:00Z,25.7020,-81.1860,1.0,29.58,11111222 
ENP,ioos.station.NOAA.NDBC:CNBF1:1,2019-11-03T19:00:00Z,25.7020,-81.1860,1.0,29.74,11111222 
ENP,ioos.station.NOAA.NDBC:CNBF1:1,2019-11-03T20:00:00Z,25.7020,-81.1860,1.0,29.62,11111222 
ENP,ioos.station.NOAA.NDBC:CNBF1:1,2019-11-03T21:00:00Z,25.7020,-81.1860,1.0,29.49,11111222 
ENP,ioos.station.NOAA.NDBC:CNBF1:1,2019-11-03T22:00:00Z,25.7020,-81.1860,1.0,29.45,11111222 
ENP,ioos.station.NOAA.NDBC:CNBF1:1,2019-11-03T23:00:00Z,25.7020,-81.1860,1.0,29.43,11111222 
ENP,ioos.station.NOAA.NDBC:CNBF1:1,2019-11-04T00:00:00Z,25.7020,-81.1860,1.0,29.41,11111222 
ENP,ioos.station.NOAA.NDBC:CNBF1:1,2019-11-04T02:00:00Z,25.7020,-81.1860,1.0,29.31,11111222 
ENP,ioos.station.NOAA.NDBC:CNBF1:1,2019-11-04T03:00:00Z,25.7020,-81.1860,1.0,29.21,11111222 
ENP,ioos.station.NOAA.NDBC:CNBF1:1,2019-11-04T05:00:00Z,25.7020,-81.1860,1.0,28.17,11111222 
ENP,ioos.station.NOAA.NDBC:CNBF1:1,2019-11-04T16:00:00Z,25.7020,-81.1860,1.0,27.18,11111222 
ENP,ioos.station.NOAA.NDBC:CNBF1:1,2019-11-04T17:00:00Z,25.7020,-81.1860,1.0,27.52,11111222 
ENP,ioos.station.NOAA.NDBC:CNBF1:1,2019-11-04T18:00:00Z,25.7020,-81.1860,1.0,28.03,11111222 
ENP,ioos.station.NOAA.NDBC:CNBF1:1,2019-11-04T19:00:00Z,25.7020,-81.1860,1.0,28.43,11111222 
ENP,ioos.station.NOAA.NDBC:CNBF1:1,2019-11-04T20:00:00Z,25.7020,-81.1860,1.0,28.86,11111222 
ENP,ioos.station.NOAA.NDBC:CNBF1:1,2019-11-04T21:00:00Z,25.7020,-81.1860,1.0,28.9,11111222 
ENP,ioos.station.NOAA.NDBC:CNBF1:1,2019-11-04T22:00:00Z,25.7020,-81.1860,1.0,28.85,11111222 
ENP,ioos.station.NOAA.NDBC:CNBF1:1,2019-11-04T23:00:00Z,25.7020,-81.1860,1.0,28.81,11111222 
ENP,ioos.station.NOAA.NDBC:CNBF1:1,2019-11-05T00:00:00Z,25.7020,-81.1860,1.0,28.77,11111222 
ENP,ioos.station.NOAA.NDBC:CNBF1:1,2019-11-05T01:00:00Z,25.7020,-81.1860,1.0,28.74,11111222 
ENP,ioos.station.NOAA.NDBC:CNBF1:1,2019-11-05T03:00:00Z,25.7020,-81.1860,1.0,28.69,11111222 
ENP,ioos.station.NOAA.NDBC:CNBF1:1,2019-11-05T05:00:00Z,25.7020,-81.1860,1.0,28.65,11111222 
ENP,ioos.station.NOAA.NDBC:CNBF1:1,2019-11-05T06:00:00Z,25.7020,-81.1860,1.0,28.42,11111222 
ENP,ioos.station.NOAA.NDBC:CNBF1:1,2019-11-05T07:00:00Z,25.7020,-81.1860,1.0,28.29,11111222 
ENP,ioos.station.NOAA.NDBC:CNBF1:1,2019-11-05T08:00:00Z,25.7020,-81.1860,1.0,28.33,11111222 
ENP,ioos.station.NOAA.NDBC:CNBF1:1,2019-11-05T09:00:00Z,25.7020,-81.1860,1.0,28.32,11111222 
ENP,ioos.station.NOAA.NDBC:CNBF1:1,2019-11-05T10:00:00Z,25.7020,-81.1860,1.0,28.28,11111222 
ENP,ioos.station.NOAA.NDBC:CNBF1:1,2019-11-05T11:00:00Z,25.7020,-81.1860,1.0,28.19,11111222 
ENP,ioos.station.NOAA.NDBC:CNBF1:1,2019-11-05T12:00:00Z,25.7020,-81.1860,1.0,28.02,11111222 
ENP,ioos.station.NOAA.NDBC:CNBF1:1,2019-11-05T13:00:00Z,25.7020,-81.1860,1.0,27.76,11111222 
ENP,ioos.station.NOAA.NDBC:CNBF1:1,2019-11-05T14:00:00Z,25.7020,-81.1860,1.0,27.84,11111222 
ENP,ioos.station.NOAA.NDBC:CNBF1:1,2019-11-05T15:00:00Z,25.7020,-81.1860,1.0,28.15,11111222 
ENP,ioos.station.NOAA.NDBC:CNBF1:1,2019-11-05T16:00:00Z,25.7020,-81.1860,1.0,28.11,11111222 
ENP,ioos.station.NOAA.NDBC:CNBF1:1,2019-11-05T17:00:00Z,25.7020,-81.1860,1.0,28.19,11111222 
ENP,ioos.station.NOAA.NDBC:CNBF1:1,2019-11-05T18:00:00Z,25.7020,-81.1860,1.0,28.61,11111222 
ENP,ioos.station.NOAA.NDBC:CNBF1:1,2019-11-05T19:00:00Z,25.7020,-81.1860,1.0,29.29,11111222 
ENP,ioos.station.NOAA.NDBC:CNBF1:1,2019-11-05T20:00:00Z,25.7020,-81.1860,1.0,29.47,11111222 
ENP,ioos.station.NOAA.NDBC:CNBF1:1,2019-11-05T21:00:00Z,25.7020,-81.1860,1.0,29.6,11111222 
ENP,ioos.station.NOAA.NDBC:CNBF1:1,2019-11-05T22:00:00Z,25.7020,-81.1860,1.0,29.84,11111222 
ENP,ioos.station.NOAA.NDBC:CNBF1:1,2019-11-05T23:00:00Z,25.7020,-81.1860,1.0,29.7,11111222 
ENP,ioos.station.NOAA.NDBC:CNBF1:1,2019-11-06T00:00:00Z,25.7020,-81.1860,1.0,29.43,11111222 
ENP,ioos.station.NOAA.NDBC:CNBF1:1,2019-11-06T01:00:00Z,25.7020,-81.1860,1.0,29.25,11111222 
ENP,ioos.station.NOAA.NDBC:CNBF1:1,2019-11-06T02:00:00Z,25.7020,-81.1860,1.0,28.88,11111222 
ENP,ioos.station.NOAA.NDBC:CNBF1:1,2019-11-06T03:00:00Z,25.7020,-81.1860,1.0,28.87,11111222 
ENP,ioos.station.NOAA.NDBC:CNBF1:1,2019-11-06T05:00:00Z,25.7020,-81.1860,1.0,28.8,11111222 
ENP,ioos.station.NOAA.NDBC:CNBF1:1,2019-11-06T06:00:00Z,25.7020,-81.1860,1.0,28.82,11111222 
ENP,ioos.station.NOAA.NDBC:CNBF1:1,2019-11-06T07:00:00Z,25.7020,-81.1860,1.0,28.67,11111222 
ENP,ioos.station.NOAA.NDBC:CNBF1:1,2019-11-06T08:00:00Z,25.7020,-81.1860,1.0,28.65,11111222 
ENP,ioos.station.NOAA.NDBC:CNBF1:1,2019-11-06T09:00:00Z,25.7020,-81.1860,1.0,28.61,11111222 
ENP,ioos.station.NOAA.NDBC:CNBF1:1,2019-11-06T10:00:00Z,25.7020,-81.1860,1.0,28.61,11111222 
ENP,ioos.station.NOAA.NDBC:CNBF1:1,2019-11-06T11:00:00Z,25.7020,-81.1860,1.0,28.59,11111222 
ENP,ioos.station.NOAA.NDBC:CNBF1:1,2019-11-06T12:00:00Z,25.7020,-81.1860,1.0,28.58,11111222 
ENP,ioos.station.NOAA.NDBC:CNBF1:1,2019-11-06T13:00:00Z,25.7020,-81.1860,1.0,28.56,11111222 
ENP,ioos.station.NOAA.NDBC:CNBF1:1,2019-11-06T14:00:00Z,25.7020,-81.1860,1.0,28.58,11111222 
ENP,ioos.station.NOAA.NDBC:CNBF1:1,2019-11-06T15:00:00Z,25.7020,-81.1860,1.0,28.57,11111222 
ENP,ioos.station.NOAA.NDBC:CNBF1:1,2019-11-06T16:00:00Z,25.7020,-81.1860,1.0,28.64,11111222 
ENP,ioos.station.NOAA.NDBC:CNBF1:1,2019-11-06T17:00:00Z,25.7020,-81.1860,1.0,28.64,11111222 
ENP,ioos.station.NOAA.NDBC:CNBF1:1,2019-11-06T18:00:00Z,25.7020,-81.1860,1.0,28.88,11111222 
ENP,ioos.station.NOAA.NDBC:CNBF1:1,2019-11-06T19:00:00Z,25.7020,-81.1860,1.0,29.02,11111222 
ENP,ioos.station.NOAA.NDBC:CNBF1:1,2019-11-06T20:00:00Z,25.7020,-81.1860,1.0,28.97,11111222 
ENP,ioos.station.NOAA.NDBC:CNBF1:1,2019-11-06T21:00:00Z,25.7020,-81.1860,1.0,28.92,11111222 
ENP,ioos.station.NOAA.NDBC:CNBF1:1,2019-11-06T22:00:00Z,25.7020,-81.1860,1.0,29.04,11111222 
ENP,ioos.station.NOAA.NDBC:CNBF1:1,2019-11-06T23:00:00Z,25.7020,-81.1860,1.0,29.27,11111222 
ENP,ioos.station.NOAA.NDBC:CNBF1:1,2019-11-07T00:00:00Z,25.7020,-81.1860,1.0,29.14,11111222 
ENP,ioos.station.NOAA.NDBC:CNBF1:1,2019-11-07T01:00:00Z,25.7020,-81.1860,1.0,28.86,11111222 
ENP,ioos.station.NOAA.NDBC:CNBF1:1,2019-11-07T03:00:00Z,25.7020,-81.1860,1.0,28.46,11111222 
ENP,ioos.station.NOAA.NDBC:CNBF1:1,2019-11-07T05:00:00Z,25.7020,-81.1860,1.0,28.53,11111222 
ENP,ioos.station.NOAA.NDBC:CNBF1:1,2019-11-07T06:00:00Z,25.7020,-81.1860,1.0,28.55,11111222 
ENP,ioos.station.NOAA.NDBC:CNBF1:1,2019-11-07T07:00:00Z,25.7020,-81.1860,1.0,28.56,11111222 
ENP,ioos.station.NOAA.NDBC:CNBF1:1,2019-11-07T08:00:00Z,25.7020,-81.1860,1.0,28.59,11111222 
ENP,ioos.station.NOAA.NDBC:CNBF1:1,2019-11-07T09:00:00Z,25.7020,-81.1860,1.0,28.35,11111222 
ENP,ioos.station.NOAA.NDBC:CNBF1:1,2019-11-07T10:00:00Z,25.7020,-81.1860,1.0,28.05,11111222 
ENP,ioos.station.NOAA.NDBC:CNBF1:1,2019-11-07T11:00:00Z,25.7020,-81.1860,1.0,27.79,11111222 
ENP,ioos.station.NOAA.NDBC:CNBF1:1,2019-11-07T12:00:00Z,25.7020,-81.1860,1.0,27.68,11111222 
ENP,ioos.station.NOAA.NDBC:CNBF1:1,2019-11-07T13:00:00Z,25.7020,-81.1860,1.0,27.88,11111222 
ENP,ioos.station.NOAA.NDBC:CNBF1:1,2019-11-07T14:00:00Z,25.7020,-81.1860,1.0,27.84,11111222 
ENP,ioos.station.NOAA.NDBC:CNBF1:1,2019-11-07T15:00:00Z,25.7020,-81.1860,1.0,27.78,11111222 
ENP,ioos.station.NOAA.NDBC:CNBF1:1,2019-11-07T16:00:00Z,25.7020,-81.1860,1.0,27.98,11111222 
ENP,ioos.station.NOAA.NDBC:CNBF1:1,2019-11-07T17:00:00Z,25.7020,-81.1860,1.0,28.07,11111222 
ENP,ioos.station.NOAA.NDBC:CNBF1:1,2019-11-07T18:00:00Z,25.7020,-81.1860,1.0,28.25,11111222 
ENP,ioos.station.NOAA.NDBC:CNBF1:1,2019-11-07T19:00:00Z,25.7020,-81.1860,1.0,28.62,11111222 
ENP,ioos.station.NOAA.NDBC:CNBF1:1,2019-11-07T20:00:00Z,25.7020,-81.1860,1.0,29.03,11111222 
ENP,ioos.station.NOAA.NDBC:CNBF1:1,2019-11-07T21:00:00Z,25.7020,-81.1860,1.0,29.25,11111222 
ENP,ioos.station.NOAA.NDBC:CNBF1:1,2019-11-07T22:00:00Z,25.7020,-81.1860,1.0,29.3,11111222 
ENP,ioos.station.NOAA.NDBC:CNBF1:1,2019-11-07T23:00:00Z,25.7020,-81.1860,1.0,29.22,11111222 
ENP,ioos.station.NOAA.NDBC:CNBF1:1,2019-11-08T00:00:00Z,25.7020,-81.1860,1.0,29.1,11111222 
ENP,ioos.station.NOAA.NDBC:CNBF1:1,2019-11-08T01:00:00Z,25.7020,-81.1860,1.0,28.94,11111222 
ENP,ioos.station.NOAA.NDBC:CNBF1:1,2019-11-08T03:00:00Z,25.7020,-81.1860,1.0,28.58,11111222 
ENP,ioos.station.NOAA.NDBC:CNBF1:1,2019-11-08T05:00:00Z,25.7020,-81.1860,1.0,28.15,11111222 
ENP,ioos.station.NOAA.NDBC:CNBF1:1,2019-11-08T06:00:00Z,25.7020,-81.1860,1.0,28.04,11111222 
ENP,ioos.station.NOAA.NDBC:CNBF1:1,2019-11-08T07:00:00Z,25.7020,-81.1860,1.0,28.12,11111222 
ENP,ioos.station.NOAA.NDBC:CNBF1:1,2019-11-08T08:00:00Z,25.7020,-81.1860,1.0,28.3,11111222 
ENP,ioos.station.NOAA.NDBC:CNBF1:1,2019-11-08T09:00:00Z,25.7020,-81.1860,1.0,28.37,11111222 
ENP,ioos.station.NOAA.NDBC:CNBF1:1,2019-11-08T10:00:00Z,25.7020,-81.1860,1.0,28.24,11111222 
ENP,ioos.station.NOAA.NDBC:CNBF1:1,2019-11-08T11:00:00Z,25.7020,-81.1860,1.0,28.02,11111222 
ENP,ioos.station.NOAA.NDBC:CNBF1:1,2019-11-08T12:00:00Z,25.7020,-81.1860,1.0,27.76,11111222 
ENP,ioos.station.NOAA.NDBC:CNBF1:1,2019-11-08T14:00:00Z,25.7020,-81.1860,1.0,27.59,11111222 
ENP,ioos.station.NOAA.NDBC:CNBF1:1,2019-11-08T15:00:00Z,25.7020,-81.1860,1.0,27.5,11111222 
ENP,ioos.station.NOAA.NDBC:CNBF1:1,2019-11-08T17:00:00Z,25.7020,-81.1860,1.0,27.73,11111222 
ENP,ioos.station.NOAA.NDBC:CNBF1:1,2019-11-08T18:00:00Z,25.7020,-81.1860,1.0,28.59,11111222 
ENP,ioos.station.NOAA.NDBC:CNBF1:1,2019-11-08T19:00:00Z,25.7020,-81.1860,1.0,29.02,11111222 
ENP,ioos.station.NOAA.NDBC:CNBF1:1,2019-11-08T20:00:00Z,25.7020,-81.1860,1.0,29.06,11111222 
ENP,ioos.station.NOAA.NDBC:CNBF1:1,2019-11-08T21:00:00Z,25.7020,-81.1860,1.0,29.65,11111222 
ENP,ioos.station.NOAA.NDBC:CNBF1:1,2019-11-08T22:00:00Z,25.7020,-81.1860,1.0,31.22,11111222 
ENP,ioos.station.NOAA.NDBC:CNBF1:1,2019-11-08T23:00:00Z,25.7020,-81.1860,1.0,31.42,11111222 
ENP,ioos.station.NOAA.NDBC:CNBF1:1,2019-11-09T00:00:00Z,25.7020,-81.1860,1.0,31.15,11111222 
ENP,ioos.station.NOAA.NDBC:CNBF1:1,2019-11-09T01:00:00Z,25.7020,-81.1860,1.0,30.84,11111222 
ENP,ioos.station.NOAA.NDBC:CNBF1:1,2019-11-09T02:00:00Z,25.7020,-81.1860,1.0,30.49,11111222 
ENP,ioos.station.NOAA.NDBC:CNBF1:1,2019-11-09T03:00:00Z,25.7020,-81.1860,1.0,29.94,11111222 
ENP,ioos.station.NOAA.NDBC:CNBF1:1,2019-11-09T05:00:00Z,25.7020,-81.1860,1.0,28.94,11111222 
ENP,ioos.station.NOAA.NDBC:CNBF1:1,2019-11-09T06:00:00Z,25.7020,-81.1860,1.0,29.0,11111222 
ENP,ioos.station.NOAA.NDBC:CNBF1:1,2019-11-09T07:00:00Z,25.7020,-81.1860,1.0,28.85,11111222 
ENP,ioos.station.NOAA.NDBC:CNBF1:1,2019-11-09T08:00:00Z,25.7020,-81.1860,1.0,28.79,11111222 
ENP,ioos.station.NOAA.NDBC:CNBF1:1,2019-11-09T09:00:00Z,25.7020,-81.1860,1.0,28.8,11111222 
ENP,ioos.station.NOAA.NDBC:CNBF1:1,2019-11-09T10:00:00Z,25.7020,-81.1860,1.0,28.69,11111222 
ENP,ioos.station.NOAA.NDBC:CNBF1:1,2019-11-09T11:00:00Z,25.7020,-81.1860,1.0,28.61,11111222 
ENP,ioos.station.NOAA.NDBC:CNBF1:1,2019-11-09T12:00:00Z,25.7020,-81.1860,1.0,28.55,11111222 
ENP,ioos.station.NOAA.NDBC:CNBF1:1,2019-11-09T13:00:00Z,25.7020,-81.1860,1.0,28.52,11111222 
ENP,ioos.station.NOAA.NDBC:CNBF1:1,2019-11-09T14:00:00Z,25.7020,-81.1860,1.0,28.51,11111222 
ENP,ioos.station.NOAA.NDBC:CNBF1:1,2019-11-09T15:00:00Z,25.7020,-81.1860,1.0,28.46,11111222 
ENP,ioos.station.NOAA.NDBC:CNBF1:1,2019-11-09T16:00:00Z,25.7020,-81.1860,1.0,28.36,11111222 
ENP,ioos.station.NOAA.NDBC:CNBF1:1,2019-11-09T17:00:00Z,25.7020,-81.1860,1.0,28.19,11111222 
ENP,ioos.station.NOAA.NDBC:CNBF1:1,2019-11-09T18:00:00Z,25.7020,-81.1860,1.0,28.15,11111222 
ENP,ioos.station.NOAA.NDBC:CNBF1:1,2019-11-09T19:00:00Z,25.7020,-81.1860,1.0,28.11,11111222 
ENP,ioos.station.NOAA.NDBC:CNBF1:1,2019-11-09T20:00:00Z,25.7020,-81.1860,1.0,28.05,11111222 
ENP,ioos.station.NOAA.NDBC:CNBF1:1,2019-11-09T21:00:00Z,25.7020,-81.1860,1.0,27.89,11111222 
ENP,ioos.station.NOAA.NDBC:CNBF1:1,2019-11-09T22:00:00Z,25.7020,-81.1860,1.0,27.72,11111222 
ENP,ioos.station.NOAA.NDBC:CNBF1:1,2019-11-09T23:00:00Z,25.7020,-81.1860,1.0,27.49,11111222 
ENP,ioos.station.NOAA.NDBC:CNBF1:1,2019-11-10T00:00:00Z,25.7020,-81.1860,1.0,26.92,11111222 
ENP,ioos.station.NOAA.NDBC:CNBF1:1,2019-11-10T02:00:00Z,25.7020,-81.1860,1.0,26.28,11111222 
ENP,ioos.station.NOAA.NDBC:CNBF1:1,2019-11-10T03:00:00Z,25.7020,-81.1860,1.0,26.12,11111222 
ENP,ioos.station.NOAA.NDBC:CNBF1:1,2019-11-10T05:00:00Z,25.7020,-81.1860,1.0,25.84,11111222 
ENP,ioos.station.NOAA.NDBC:CNBF1:1,2019-11-10T06:00:00Z,25.7020,-81.1860,1.0,25.71,11111222 
ENP,ioos.station.NOAA.NDBC:CNBF1:1,2019-11-10T07:00:00Z,25.7020,-81.1860,1.0,25.65,11111222 
ENP,ioos.station.NOAA.NDBC:CNBF1:1,2019-11-10T08:00:00Z,25.7020,-81.1860,1.0,25.59,11111222 
ENP,ioos.station.NOAA.NDBC:CNBF1:1,2019-11-10T09:00:00Z,25.7020,-81.1860,1.0,25.51,11111222 
ENP,ioos.station.NOAA.NDBC:CNBF1:1,2019-11-10T10:00:00Z,25.7020,-81.1860,1.0,25.32,11111222 
ENP,ioos.station.NOAA.NDBC:CNBF1:1,2019-11-10T11:00:00Z,25.7020,-81.1860,1.0,25.19,11111222 
ENP,ioos.station.NOAA.NDBC:CNBF1:1,2019-11-10T12:00:00Z,25.7020,-81.1860,1.0,25.05,11111222 
ENP,ioos.station.NOAA.NDBC:CNBF1:1,2019-11-10T13:00:00Z,25.7020,-81.1860,1.0,24.88,11111222 
ENP,ioos.station.NOAA.NDBC:CNBF1:1,2019-11-10T14:00:00Z,25.7020,-81.1860,1.0,24.72,11111222 
ENP,ioos.station.NOAA.NDBC:CNBF1:1,2019-11-10T15:00:00Z,25.7020,-81.1860,1.0,24.76,11111222 
ENP,ioos.station.NOAA.NDBC:CNBF1:1,2019-11-10T16:00:00Z,25.7020,-81.1860,1.0,24.85,11111222 
ENP,ioos.station.NOAA.NDBC:CNBF1:1,2019-11-10T17:00:00Z,25.7020,-81.1860,1.0,25.17,11111222 
ENP,ioos.station.NOAA.NDBC:CNBF1:1,2019-11-10T18:00:00Z,25.7020,-81.1860,1.0,25.28,11111222 
ENP,ioos.station.NOAA.NDBC:CNBF1:1,2019-11-10T19:00:00Z,25.7020,-81.1860,1.0,25.36,11111222 
ENP,ioos.station.NOAA.NDBC:CNBF1:1,2019-11-10T20:00:00Z,25.7020,-81.1860,1.0,25.6,11111222 
ENP,ioos.station.NOAA.NDBC:CNBF1:1,2019-11-10T21:00:00Z,25.7020,-81.1860,1.0,25.81,11111222 
ENP,ioos.station.NOAA.NDBC:CNBF1:1,2019-11-10T22:00:00Z,25.7020,-81.1860,1.0,25.91,11111222 
ENP,ioos.station.NOAA.NDBC:CNBF1:1,2019-11-11T01:00:00Z,25.7020,-81.1860,1.0,25.68,11111222 
ENP,ioos.station.NOAA.NDBC:CNBF1:1,2019-11-11T05:00:00Z,25.7020,-81.1860,1.0,25.26,11111222 
ENP,ioos.station.NOAA.NDBC:CNBF1:1,2019-11-11T09:00:00Z,25.7020,-81.1860,1.0,25.02,11111222 
ENP,ioos.station.NOAA.NDBC:CNBF1:1,2019-11-11T12:00:00Z,25.7020,-81.1860,1.0,24.68,11111222 
ENP,ioos.station.NOAA.NDBC:CNBF1:1,2019-11-11T15:00:00Z,25.7020,-81.1860,1.0,24.16,11111222 
ENP,ioos.station.NOAA.NDBC:CNBF1:1,2019-11-11T16:00:00Z,25.7020,-81.1860,1.0,24.51,11111222 
ENP,ioos.station.NOAA.NDBC:CNBF1:1,2019-11-11T17:00:00Z,25.7020,-81.1860,1.0,24.83,11111222 
ENP,ioos.station.NOAA.NDBC:CNBF1:1,2019-11-11T18:00:00Z,25.7020,-81.1860,1.0,24.99,11111222 
ENP,ioos.station.NOAA.NDBC:CNBF1:1,2019-11-11T19:00:00Z,25.7020,-81.1860,1.0,25.25,11111222 
ENP,ioos.station.NOAA.NDBC:CNBF1:1,2019-11-11T20:00:00Z,25.7020,-81.1860,1.0,25.53,11111222 
ENP,ioos.station.NOAA.NDBC:CNBF1:1,2019-11-11T21:00:00Z,25.7020,-81.1860,1.0,25.72,11111222 
ENP,ioos.station.NOAA.NDBC:CNBF1:1,2019-11-11T22:00:00Z,25.7020,-81.1860,1.0,25.88,11111222 
ENP,ioos.station.NOAA.NDBC:CNBF1:1,2019-11-11T23:00:00Z,25.7020,-81.1860,1.0,25.93,11111222 
ENP,ioos.station.NOAA.NDBC:CNBF1:1,2019-11-12T00:00:00Z,25.7020,-81.1860,1.0,25.86,11111222 
ENP,ioos.station.NOAA.NDBC:CNBF1:1,2019-11-12T01:00:00Z,25.7020,-81.1860,1.0,25.72,11111222 
ENP,ioos.station.NOAA.NDBC:CNBF1:1,2019-11-12T02:00:00Z,25.7020,-81.1860,1.0,25.59,11111222 
ENP,ioos.station.NOAA.NDBC:CNBF1:1,2019-11-12T03:00:00Z,25.7020,-81.1860,1.0,25.47,11111222 
ENP,ioos.station.NOAA.NDBC:CNBF1:1,2019-11-12T05:00:00Z,25.7020,-81.1860,1.0,25.24,11111222 
ENP,ioos.station.NOAA.NDBC:CNBF1:1,2019-11-12T06:00:00Z,25.7020,-81.1860,1.0,25.07,11111222 
ENP,ioos.station.NOAA.NDBC:CNBF1:1,2019-11-12T07:00:00Z,25.7020,-81.1860,1.0,24.95,11111222 
ENP,ioos.station.NOAA.NDBC:CNBF1:1,2019-11-12T08:00:00Z,25.7020,-81.1860,1.0,24.84,11111222 
ENP,ioos.station.NOAA.NDBC:CNBF1:1,2019-11-12T09:00:00Z,25.7020,-81.1860,1.0,24.71,11111222 
ENP,ioos.station.NOAA.NDBC:CNBF1:1,2019-11-12T10:00:00Z,25.7020,-81.1860,1.0,24.6,11111222 
ENP,ioos.station.NOAA.NDBC:CNBF1:1,2019-11-12T11:00:00Z,25.7020,-81.1860,1.0,24.47,11111222 
ENP,ioos.station.NOAA.NDBC:CNBF1:1,2019-11-12T12:00:00Z,25.7020,-81.1860,1.0,24.36,11111222 
ENP,ioos.station.NOAA.NDBC:CNBF1:1,2019-11-12T14:00:00Z,25.7020,-81.1860,1.0,24.19,11111222 
ENP,ioos.station.NOAA.NDBC:CNBF1:1,2019-11-12T15:00:00Z,25.7020,-81.1860,1.0,24.2,11111222 
ENP,ioos.station.NOAA.NDBC:CNBF1:1,2019-11-12T16:00:00Z,25.7020,-81.1860,1.0,24.3,11111222 
ENP,ioos.station.NOAA.NDBC:CNBF1:1,2019-11-12T17:00:00Z,25.7020,-81.1860,1.0,24.91,11111222 
ENP,ioos.station.NOAA.NDBC:CNBF1:1,2019-11-12T18:00:00Z,25.7020,-81.1860,1.0,25.17,11111222 
ENP,ioos.station.NOAA.NDBC:CNBF1:1,2019-11-12T19:00:00Z,25.7020,-81.1860,1.0,25.05,11111222 
ENP,ioos.station.NOAA.NDBC:CNBF1:1,2019-11-12T20:00:00Z,25.7020,-81.1860,1.0,25.0,11111222 
ENP,ioos.station.NOAA.NDBC:CNBF1:1,2019-11-12T21:00:00Z,25.7020,-81.1860,1.0,25.06,11111222 
ENP,ioos.station.NOAA.NDBC:CNBF1:1,2019-11-12T22:00:00Z,25.7020,-81.1860,1.0,25.55,11111222 
ENP,ioos.station.NOAA.NDBC:CNBF1:1,2019-11-12T23:00:00Z,25.7020,-81.1860,1.0,26.16,11111222 
ENP,ioos.station.NOAA.NDBC:CNBF1:1,2019-11-13T00:00:00Z,25.7020,-81.1860,1.0,26.29,11111222 
ENP,ioos.station.NOAA.NDBC:CNBF1:1,2019-11-13T01:00:00Z,25.7020,-81.1860,1.0,26.32,11111222 
ENP,ioos.station.NOAA.NDBC:CNBF1:1,2019-11-13T02:00:00Z,25.7020,-81.1860,1.0,26.36,11111222 
ENP,ioos.station.NOAA.NDBC:CNBF1:1,2019-11-13T03:00:00Z,25.7020,-81.1860,1.0,26.33,11111222 
ENP,ioos.station.NOAA.NDBC:CNBF1:1,2019-11-13T05:00:00Z,25.7020,-81.1860,1.0,26.1,11111222 
ENP,ioos.station.NOAA.NDBC:CNBF1:1,2019-11-13T06:00:00Z,25.7020,-81.1860,1.0,25.99,11111222 
ENP,ioos.station.NOAA.NDBC:CNBF1:1,2019-11-13T07:00:00Z,25.7020,-81.1860,1.0,25.84,11111222 
ENP,ioos.station.NOAA.NDBC:CNBF1:1,2019-11-13T08:00:00Z,25.7020,-81.1860,1.0,25.74,11111222 
ENP,ioos.station.NOAA.NDBC:CNBF1:1,2019-11-13T09:00:00Z,25.7020,-81.1860,1.0,25.68,11111222 
ENP,ioos.station.NOAA.NDBC:CNBF1:1,2019-11-13T10:00:00Z,25.7020,-81.1860,1.0,25.59,11111222 
ENP,ioos.station.NOAA.NDBC:CNBF1:1,2019-11-13T11:00:00Z,25.7020,-81.1860,1.0,25.48,11111222 
ENP,ioos.station.NOAA.NDBC:CNBF1:1,2019-11-13T12:00:00Z,25.7020,-81.1860,1.0,25.38,11111222 
ENP,ioos.station.NOAA.NDBC:CNBF1:1,2019-11-13T13:00:00Z,25.7020,-81.1860,1.0,25.31,11111222 
ENP,ioos.station.NOAA.NDBC:CNBF1:1,2019-11-13T14:00:00Z,25.7020,-81.1860,1.0,25.43,11111222 
ENP,ioos.station.NOAA.NDBC:CNBF1:1,2019-11-13T15:00:00Z,25.7020,-81.1860,1.0,25.53,11111222 
ENP,ioos.station.NOAA.NDBC:CNBF1:1,2019-11-13T17:00:00Z,25.7020,-81.1860,1.0,25.65,11111222 